{"data":{"norad_id":52485,"intl_designator":"2022-049AL","name":"STARLINK-3913","alt_names":[],"object_type":"PAYLOAD","status":"ACTIVE","operator":null,"country":"US","launch_date":"2022-05-06","launch_site_code":"AFETR","launch_vehicle":null,"mission":null,"orbit_class":"UNKNOWN","rcs_meters":null,"size_class":null,"mass_kg":null,"dimensions":null,"purposes":["comms"],"wikipedia_slug":null,"has_3d_model":false,"image_url":null,"decayed_at":null,"tle_current":{"epoch":"2026-05-25T02:02:16.516032Z","epoch_age_seconds":63847,"freshness":"FRESH","line1":"1 52485U 22049AL  26145.08491338 -.00001345  00000+0 -66464-4 0  9999","line2":"2 52485  53.2144  66.1702 0001561  99.1942 260.9227 15.08817695223920","mean_motion":15.08817695,"eccentricity":0.0001561,"inclination_deg":53.2144,"raan_deg":66.1702,"arg_perigee_deg":99.1942,"mean_anomaly_deg":260.9227,"bstar":-6.6464e-5,"rev_number":22392,"period_min":95.438965540499,"perigee_km":538.73167549439,"apogee_km":540.8914590371,"semimajor_km":6917.9485672657,"source":"CELESTRAK","updated_at":"2026-05-25T13:38:17.156430Z"}}}